Location: Coopersdale
(40.3556°N, 78.9372°W)
Time: 22:29:36
(UTC+00:00)

Tiros 1 despin weight - All Passes

Search period start: 19 January 2021 00:00
Search period end: 29 January 2021 00:00
Orbit: 594 x 641 km, 48.2° (Epoch: 19 January)

Date Brightness Start Highest point End Pass type
(mag) Time Alt. Az. Time Alt. Az. Time Alt. Az.
19 Jan - 01:13:01 10° NW 01:17:01 32° N 01:20:59 10° ENE visible
19 Jan - 02:54:35 10° WNW 02:59:00 76° NNE 03:03:25 10° ESE night (unlit)
19 Jan - 04:36:46 10° W 04:40:11 22° SW 04:43:36 10° S night (unlit)
19 Jan - 20:23:38 10° SSW 20:27:46 36° SE 20:31:51 10° ENE daylight
19 Jan - 22:04:47 10° WSW 22:09:12 55° NNW 22:13:35 10° NE daylight
19 Jan - 23:47:26 10° WNW 23:51:22 29° N 23:55:17 10° ENE visible
20 Jan - 01:29:29 10° NW 01:33:40 39° NNE 01:37:50 10° E visible
20 Jan - 03:11:01 10° WNW 03:15:23 62° SW 03:19:44 10° SE night (unlit)
20 Jan - 04:55:12 10° WSW 04:56:13 11° SW 04:57:14 10° SW night (unlit)
20 Jan - 19:01:14 10° SSE 19:03:07 12° SE 19:05:00 10° ESE daylight
20 Jan - 20:39:31 10° SW 20:44:02 67° SE 20:48:28 10° ENE daylight
20 Jan - 22:21:34 10° W 22:25:47 38° NNW 22:29:58 10° NE daylight
21 Jan - 00:04:10 10° WNW 00:08:06 30° N 00:12:00 10° ENE visible
21 Jan - 01:45:52 10° NW 01:50:15 57° NNE 01:54:36 10° ESE visible
21 Jan - 03:27:40 10° WNW 03:31:37 32° SW 03:35:33 10° SSE night (unlit)
21 Jan - 19:15:28 10° S 19:19:10 25° SE 19:22:51 10° E daylight
21 Jan - 20:55:53 10° WSW 21:00:25 72° NNW 21:04:54 10° ENE daylight
21 Jan - 22:38:26 10° WNW 22:42:27 31° N 22:46:26 10° NE daylight
22 Jan - 00:20:43 10° NW 00:24:48 34° NNE 00:28:51 10° ENE visible
22 Jan - 02:02:15 10° WNW 02:06:42 87° SSW 02:11:06 10° ESE visible
22 Jan - 03:44:54 10° W 03:47:44 17° SW 03:50:32 10° S night (unlit)
22 Jan - 19:30:59 10° SW 19:35:21 47° SE 19:39:40 10° ENE daylight
22 Jan - 21:12:33 10° W 21:16:55 47° NNW 21:21:15 10° NE daylight
22 Jan - 22:55:14 10° WNW 22:59:11 29° N 23:03:05 10° ENE visible
23 Jan - 00:37:08 10° NW 00:41:26 45° NNE 00:45:40 10° E visible
23 Jan - 02:18:45 10° WNW 02:23:00 47° SW 02:27:13 10° SE visible
23 Jan - 18:07:40 10° S 18:10:36 17° SE 18:13:31 10° E daylight
23 Jan - 19:47:06 10° SW 19:51:40 85° SSE 19:56:10 10° ENE daylight
23 Jan - 21:29:23 10° W 21:33:33 35° NNW 21:37:40 10° NE daylight
23 Jan - 23:11:53 10° NW 23:15:53 31° N 23:19:52 10° ENE visible
24 Jan - 00:53:30 10° WNW 00:57:57 70° NNE 01:02:21 10° ESE visible
24 Jan - 02:35:34 10° W 02:39:11 25° SW 02:42:47 10° SSE visible
24 Jan - 18:22:38 10° SSW 18:26:43 32° SE 18:30:45 10° ENE daylight
24 Jan - 20:03:36 10° WSW 20:08:06 59° NNW 20:12:33 10° NE daylight
24 Jan - 21:46:15 10° WNW 21:50:14 30° N 21:54:12 10° ENE daylight
24 Jan - 23:28:23 10° NW 23:32:34 38° NNE 23:36:43 10° E visible
25 Jan - 01:09:55 10° WNW 01:14:21 69° SSW 01:18:43 10° SE visible
25 Jan - 02:53:24 10° WSW 02:55:14 12° SW 02:57:02 10° SSW night (unlit)
25 Jan - 17:00:50 10° SE 17:02:05 11° SE 17:03:19 10° ESE daylight
25 Jan - 18:38:25 10° SW 18:42:57 61° SE 18:47:25 10° ENE daylight
25 Jan - 20:20:21 10° W 20:24:39 41° NNW 20:28:55 10° NE daylight
25 Jan - 22:02:59 10° WNW 22:06:58 30° N 22:10:53 10° ENE daylight
25 Jan - 23:44:46 10° NW 23:49:09 53° NNE 23:53:29 10° E visible
26 Jan - 01:26:31 10° WNW 01:30:36 36° SW 01:34:38 10° SSE visible
26 Jan - 17:14:33 10° S 17:18:07 22° SE 17:21:39 10° E daylight
26 Jan - 18:54:43 10° WSW 18:59:18 79° NNW 19:03:50 10° ENE daylight
26 Jan - 20:37:12 10° WNW 20:41:19 32° N 20:45:23 10° NE daylight
26 Jan - 22:19:34 10° NW 22:23:40 33° N 22:27:43 10° ENE daylight
27 Jan - 00:01:09 10° WNW 00:05:37 86° NNE 00:10:02 10° ESE visible
27 Jan - 01:43:35 10° W 01:46:42 19° SW 01:49:49 10° S visible
27 Jan - 17:29:56 10° SSW 17:34:16 42° SE 17:38:34 10° ENE daylight
27 Jan - 19:11:21 10° W 19:15:48 50° NNW 19:20:13 10° NE daylight
27 Jan - 20:54:02 10° WNW 20:58:02 30° N 21:01:59 10° ENE daylight
27 Jan - 22:36:01 10° NW 22:40:19 43° NNE 22:44:33 10° E daylight
28 Jan - 00:17:37 10° WNW 00:21:58 53° SW 00:26:15 10° SE visible
28 Jan - 16:06:54 10° SSE 16:09:33 15° SE 16:12:12 10° E daylight
28 Jan - 17:45:57 10° SW 17:50:33 77° SSE 17:55:06 10° ENE daylight
28 Jan - 19:28:08 10° W 19:32:24 37° NNW 19:36:36 10° NE daylight
28 Jan - 21:10:43 10° WNW 21:14:45 31° N 21:18:44 10° ENE daylight
28 Jan - 22:52:23 10° WNW 22:56:52 64° NNE 23:01:15 10° ESE visible
